Home > Weather > Chico > Past weeks

Flag for USA Past Weather in Chico, California, USA — Yesterday and Last 2 Weeks

Now
93 °F

Scattered clouds.


Feels Like: 90 °F
Forecast: 65 / 101 °F
Wind: 7 mph from South

Location: Chico Municipal

Current Time: Jun 26, 2016 at 1:51:06 PM

Latest Report: Jun 26, 2016 at 12:54 PM


Visibility: 40 mi

Pressure: 29.95 "Hg

Humidity: 21%

Dew Point: 48 °F

Location of ChicoLocation

Past Weather in Chico — Graph

°F

Chico Temperature Yesterday

Maximum temperature yesterday: 99 °F (at 5:55 PM)
Minimum temperature yesterday: 64 °F (at 3:55 AM)
Average temperature yesterday: 80 °F

High & Low Weather Summary for the Past Weeks

 TemperatureHumidityPressure
High99 °F (Jun 25, 5:55 PM)100% (Jun 17, 10:35 PM)30.23 "Hg (Jun 17, 10:35 PM)
Low55 °F (Jun 15, 5:35 AM)8% (Jun 11, 4:48 PM)29.82 "Hg (Jun 11, 6:15 PM)
Average73 °F41%29.97 "Hg
* Reported Jun 11 11:48 AM — Jun 26 11:50 AM, Chico, Weather by CustomWeather, © 2016

Note: Actual official high and low records may vary slightly from our data, if they occured in-between our weather recording intervals... More about our weather records

Advertising

Chico Weather History for the Previous 24 Hours

Scroll right to see more
 ConditionsComfort  
Time TempWeatherWind HumidityBarometerVisibility
11:50 AM
Sun, Jun 26
90 °FScattered clouds.6 mph21%29.95 "Hg40 mi
10:50 AM86 °FPassing clouds.6 mph24%29.96 "Hg40 mi
9:58 AM84 °FPassing clouds.7 mph23%29.97 "Hg40 mi
8:47 AM81 °FSunny.6 mph28%29.97 "Hg40 mi
7:54 AM75 °FSunny.No wind31%29.96 "Hg40 mi
6:46 AM70 °FSunny.No wind33%29.94 "Hg40 mi
5:35 AM66 °FClear.No wind37%29.92 "Hg10 mi
5:15 AM68 °FClear.No wind35%29.92 "Hg10 mi
4:55 AM68 °FClear.5 mph35%29.92 "Hg10 mi
4:15 AM68 °FClear.No wind35%29.91 "Hg10 mi
3:55 AM68 °FClear.No wind38%29.91 "Hg10 mi
3:35 AM68 °FClear.No wind43%29.91 "Hg10 mi
3:15 AM72 °FClear.3 mph31%29.90 "Hg10 mi
2:55 AM72 °FClear.No wind33%29.90 "Hg10 mi
2:35 AM75 °FClear.No wind27%29.89 "Hg10 mi
2:15 AM75 °FClear.No wind27%29.89 "Hg10 mi
1:55 AM77 °FClear.No wind24%29.89 "Hg10 mi
1:35 AM77 °FClear.No wind24%29.89 "Hg10 mi
1:15 AM77 °FClear.5 mph24%29.90 "Hg10 mi
12:55 AM79 °FClear.9 mph23%29.89 "Hg10 mi
12:15 AM79 °FClear.9 mph24%29.90 "Hg10 mi
11:55 PM
Sat, Jun 25
77 °FClear.No wind28%29.90 "Hg10 mi
11:15 PM79 °FClear.No wind30%29.89 "Hg10 mi
10:55 PM81 °FClear.No wind28%29.89 "Hg10 mi
10:35 PM81 °FClear.No wind30%29.89 "Hg10 mi
10:15 PM82 °FClear.No wind26%29.88 "Hg10 mi
9:55 PM84 °FClear.No wind25%29.87 "Hg10 mi
9:15 PM88 °FSunny.No wind22%29.86 "Hg10 mi
8:55 PM91 °FSunny.No wind30%29.86 "Hg10 mi
8:35 PM91 °FSunny.No wind30%29.85 "Hg10 mi
8:15 PM93 °FSunny.No wind23%29.85 "Hg10 mi
7:55 PM95 °FSunny.7 mph16%29.85 "Hg10 mi
7:35 PM95 °FSunny.7 mph13%29.85 "Hg10 mi
7:15 PM95 °FSunny.No wind14%29.84 "Hg10 mi
6:55 PM97 °FSunny.6 mph13%29.84 "Hg10 mi
6:35 PM97 °FSunny.5 mph11%29.85 "Hg10 mi
6:15 PM99 °FSunny.3 mph9%29.85 "Hg10 mi
5:55 PM99 °FSunny.6 mph10%29.85 "Hg10 mi
3:50 PM97 °FPassing clouds.10 mph13%29.88 "Hg40 mi
2:50 PM95 °FPassing clouds.12 mph13%29.89 "Hg40 mi
1:47 PM93 °FPassing clouds.12 mph14%29.91 "Hg40 mi
Weather by CustomWeather, © 2016

See weather overviewHow to use our weather pages